Location: Kavt�iskhevi
(41.8551°N, 44.4397°E)
Time: 12:50:28
(UTC+00:00)

Daily predictions for brighter satellites

Satellite Brightness Start Highest point End
(mag) Time Altitude Azimuth Time Altitude Azimuth Time Altitude Azimuth
Cosmos 2279 Rocket 4.1 16:48:19 10° N 16:54:27 60° E 17:00:33 10° SSE
Cosmos 1242 Rocket 2.5 16:53:46 10° N 16:57:22 75° E 17:00:53 10° SSE
Cosmos 1953 Rocket 3.9 16:54:44 10° SSW 16:59:12 73° W 17:03:42 10° N
Cosmos 1437 2.3 16:57:14 10° N 16:59:59 63° ENE 17:02:42 10° SSE
USA 32 4.5 17:05:31 10° N 17:10:44 68° W 17:15:55 10° S
Cosmos 1076 Rocket 4.1 17:07:40 10° SSE 17:11:38 37° E 17:15:39 10° NNE
SL-16 R/B 4.1 17:10:04 10° N 17:13:40 17° NE 17:17:15 10° E
Landsat 7 4.4 17:10:11 10° SE 17:14:39 42° ENE 17:19:08 10° N
Atlas Centaur 2 3.1 17:13:16 10° SSW 17:15:41 15° S 17:17:35 11° SE
Cosmos 2360 4.2 17:10:05 10° NNW 17:15:48 87° ENE 17:21:29 10° SSE
Resurs 1-3 3.6 17:14:20 10° SSE 17:18:43 90° SW 17:23:08 10° NNW
Helios 1A Rocket 3.8 17:15:10 10° S 17:19:04 48° W 17:23:02 10° NNW
ISS -1.8 17:16:29 10° NW 17:19:18 24° NNE 17:22:07 10° ENE
ERS-2 2.0 17:16:17 10° NNE 17:19:56 68° ESE 17:23:32 10° S
Cosmos 2098 Rocket 2.9 17:17:54 10° SSE 17:20:40 35° E 17:23:46 10° NNE
Nadezhda 4 Rocket 4.2 17:16:03 10° SSE 17:21:59 52° E 17:27:59 10° NNE
Cosmos 1842 Rocket 3.6 17:17:46 10° N 17:22:16 74° E 17:26:44 10° SSE
BREEZE-M DEB (TANK) 3.2 17:20:11 10° NW 17:22:51 39° NNE 17:28:45 10° E
GENESIS II 4.3 17:19:41 10° NW 17:23:34 71° WSW 17:27:05 12° SSE
Cosmos 1697 Rocket 3.2 17:27:10 10° NNW 17:32:46 61° WSW 17:38:18 10° S
SEDSat Delta rocket 4.4 17:30:45 10° SW 17:33:38 19° S 17:35:10 15° SSE
Ariane Rocket 3.2 17:28:58 10° S 17:34:01 74° WSW 17:39:07 10° NNW
ERBS 2.5 17:32:34 10° NW 17:35:44 58° SW 17:37:48 20° SSE
CZ-2C R/B 4.2 17:32:25 10° NNE 17:36:40 38° E 17:40:15 13° SSE
GP-B 4.4 17:34:11 10° NNE 17:37:45 23° E 17:39:36 18° ESE
Cosmos 1271 Rocket 4.3 17:35:03 10° NNE 17:38:09 21° ENE 17:39:47 17° ESE
H-2A R/B 3.4 17:37:31 10° SW 17:40:14 13° SSW 17:41:54 10° S
Cosmos 1833 Rocket 4.4 17:35:20 10° SW 17:40:32 37° WNW 17:45:46 10° N
Cosmos 2082 Rocket 2.6 17:39:00 10° SSW 17:44:35 69° WNW 17:50:15 10° NNE
SPOT 1/Viking Rocket 3.7 17:41:13 17° SE 17:45:09 57° ENE 17:50:16 10° N
Cosmos 2278 3.7 17:44:09 10° NNW 17:49:50 78° ENE 17:53:54 20° SSE
Centaur D AC-29 4.3 17:36:05 10° W 17:50:21 18° SW 17:55:43 10° SSW
ATLAS 2AS CENTAUR R/B 3.9 17:43:56 10° SW 17:51:38 53° NW 17:59:12 10° NNE
Meteor 2-15 4.4 17:49:33 10° N 17:55:37 68° E 18:00:05 19° SSE
USA 245 4.0 17:52:30 20° SSE 17:56:05 58° ENE 18:00:28 10° N
IGS 5A 3.9 17:52:35 12° S 17:56:17 59° W 18:00:24 10° NNW
Cosmos 2360 Rocket 4.1 17:55:06 10° N 17:58:43 17° NE 18:02:06 11° E
Cosmos 923 Rocket 4.4 17:57:11 17° SSE 18:00:55 43° ESE 18:05:57 10° NNE
Resurs 01 Rocket 2.2 17:57:20 12° S 18:01:18 56° W 18:05:42 10° NNW
Cosmos 2221 3.9 17:57:50 10° NNW 18:01:47 36° W 18:05:45 10° SSW
ATLAS 3B R/B 2.8 17:55:42 10° NW 18:02:53 84° NE 18:07:52 23° SE
USA 267 3.9 18:00:35 10° ENE 18:06:17 31° SE 18:11:57 10° S
Cosmos 371 Rocket 3.3 18:06:37 10° NNW 18:11:26 76° WSW 18:14:10 26° S
Cosmos 1606 4.2 18:09:22 10° NNW 18:12:46 33° W 18:15:59 11° SSW
Meteor 2-15 Rocket 4.4 18:07:08 10° N 18:13:14 73° E 18:16:56 25° SSE
CARTOSAT-1 3.5 18:15:42 34° SSE 18:17:29 71° ENE 18:21:48 10° N
Cosmos 2151 3.3 18:16:11 13° SSW 18:19:50 64° W 18:24:05 10° N
Cosmos 1980 Rocket 2.9 18:15:08 10° NW 18:20:31 47° WSW 18:24:20 19° S
ERS-1 Rocket 3.2 18:20:39 33° SE 18:22:41 56° ENE 18:27:36 10° N
SPOT 5 2.8 18:23:10 39° SE 18:24:26 54° ENE 18:28:42 10° N
Cosmos 1812 3.9 18:23:46 10° NNE 18:27:06 27° ENE 18:27:10 27° ENE
Terra 2.4 18:25:44 33° ESE 18:27:08 42° ENE 18:31:38 10° N
SPOT 3 Rocket 4.5 18:23:37 15° SSW 18:27:40 44° W 18:32:40 10° NNW
ARIANE 5 R/B 2.6 18:26:06 39° SSE 18:27:42 76° ENE 18:32:11 10° N
Cosmos 2195 Rocket 4.4 18:23:06 14° S 18:28:25 85° W 18:34:34 10° N
Cosmos 158 Rocket 4.4 18:24:34 10° SSW 18:29:38 63° WNW 18:34:52 10° NNE
USA 276 3.5 18:27:00 10° NW 18:29:53 32° NNE 18:30:38 28° NE
Cosmos 1933 3.4 18:25:50 10° NNW 18:29:53 71° W 18:31:19 38° S
Cosmos 2322 Rocket 2.8 18:25:20 10° NNW 18:30:44 45° ENE 18:32:51 31° ESE
Gbstr 26 Del rocket 3.6 18:30:26 10° NW 18:34:04 44° NNE 18:35:26 31° ENE
Spot 2 Rocket 3.5 18:31:44 32° S 18:34:10 79° WSW 18:39:19 10° NNW
Cosmos 2112 Rocket 4.1 18:33:38 36° SSE 18:35:33 56° ESE 18:40:44 10° NNE
Meteor 2-3 Rocket 4.0 18:30:41 13° SSW 18:35:47 70° W 18:41:30 10° N
Cosmos 1680 Rocket 3.4 18:33:48 30° S 18:36:24 68° ESE 18:41:39 10° NNE
COSMOS 2455 4.5 18:39:43 17° E 18:39:43 17° E 18:42:16 10° ENE
Cosmos 1766 Rocket 3.4 18:43:44 52° S 18:44:47 81° E 18:49:12 10° N
Cosmos 1092 Rocket 4.5 18:39:25 11° SSW 18:45:22 60° W 18:51:38 10° N
H-2A R/B 4.1 18:44:14 10° NNE 18:47:45 39° E 18:47:45 39° E
Cosmos 332 Rocket 4.2 18:43:29 10° NNW 18:48:16 57° WSW 18:49:56 37° SSW
BREEZE-M DEB (TANK) 4.1 18:42:24 10° WNW 18:48:29 32° N 18:50:26 17° NE
Cosmos 1862 3.6 18:51:29 50° ENE 18:51:29 50° ENE 18:55:00 10° NNE
Cosmos 2219 Rocket 4.1 18:49:38 10° N 18:53:27 18° NE 18:55:49 14° E
Cosmos 1151 Rocket 2.9 18:49:07 10° N 18:53:30 88° WSW 18:54:10 64° S
Cosmos 1328 Rocket 3.5 18:49:53 10° N 18:54:21 71° E 18:54:48 65° SE
ISS -3.1 18:53:01 10° WNW 18:55:42 51° W 18:55:42 51° W
SL-16 R/B 2.1 18:52:49 10° NNW 18:58:32 85° WSW 19:00:08 49° SSE
Cosmos 1782 3.3 18:56:07 10° NNW 19:00:02 53° W 19:00:35 49° SW
Cosmos 2237 4.4 18:54:45 10° NNW 19:00:24 59° ENE 19:01:51 45° ESE
Meteor 2-6 Rocket 4.1 18:56:57 10° N 19:02:22 69° ENE 19:03:26 54° SE
Meteor 2-21 4.4 19:01:11 39° S 19:03:41 86° E 19:09:53 10° N
Cosmos 1271 Rocket 4.4 19:10:42 10° NW 19:14:05 27° W 19:14:54 25° WSW
Cosmos 1624 Rocket 3.8 19:12:11 10° NNW 19:17:25 78° ENE 19:18:01 67° SE
Cosmos 292 Rocket 4.3 19:13:09 10° N 19:17:43 44° ENE 19:17:54 44° ENE
ATLAS 5 CENTAUR R/B 4.3 19:19:08 10° N 19:23:03 20° NE 19:27:03 11° E
Meteor 1-27 Rocket 4.0 19:19:29 10° N 19:24:59 50° ENE 19:25:36 48° E
Cosmos 1500 Rocket 4.0 19:29:00 52° NE 19:29:00 52° NE 19:32:37 10° NNE
Cosmos 1420 Rocket 4.0 19:24:04 10° NNW 19:29:23 65° ENE 19:29:47 63° E
Meteor 2-16 Rocket 4.3 19:34:14 56° SSW 19:35:38 84° W 19:41:46 10° N
Cosmos 2315 Rocket 4.2 19:32:29 10° N 19:38:44 58° E 19:39:37 53° ESE
Cosmos 2360 Rocket 2.0 19:37:47 10° NNW 19:43:26 83° WSW 19:43:51 76° S
Meteor 1-10 Rocket 4.2 19:39:28 10° NNW 19:45:00 68° W 19:45:36 62° SW
Cosmos 2266 Rocket 3.9 19:45:13 59° SSW 19:46:26 81° W 19:52:40 10° N
Cosmos 1833 4.3 19:45:28 53° SW 19:46:50 75° WNW 19:52:39 10° NNE
Cosmos 1408 Rocket 4.4 19:47:10 42° W 19:47:20 42° WNW 19:51:29 10° N
Cosmos 1743 Rocket 3.9 19:48:22 65° N 19:48:22 65° N 19:52:13 10° N
Cosmos 1452 Rocket 4.0 19:42:39 10° N 19:47:45 48° ENE 19:47:52 48° ENE
USA 267 3.3 19:43:05 10° NE 19:49:36 75° NW 19:56:08 10° WSW
Cosmos 2333 Rocket 2.4 19:44:45 10° NNW 19:50:18 55° ENE 19:50:48 53° E
ATLAS 3B R/B 4.5 19:47:51 10° WNW 19:52:50 20° WSW 19:55:07 17° SW
Spot 4 4.1 19:55:49 61° NE 19:55:49 61° NE 20:00:11 10° N
Cosmos 2056 Rocket 4.1 19:52:05 10° NNW 19:57:11 47° WSW 19:57:17 47° WSW
Sich 1 4.1 20:00:44 39° NE 20:00:44 39° NE 20:03:40 10° NNE
Cosmos 1655 Rocket 4.5 19:58:58 42° SW 20:00:49 56° W 20:07:07 10° N
Cosmos 2322 3.8 19:56:03 10° NNW 20:01:46 65° ENE 20:02:04 64° E
IRIDIUM 104 4.3 19:59:43 10° N 20:04:48 79° WNW 20:04:48 79° WNW
Terra 3.7 20:04:37 20° W 20:05:03 20° W 20:08:35 10° NW
Cosmos 2297 Rocket 4.1 20:08:34 16° ENE 20:08:34 16° ENE 20:10:41 10° ENE
Cosmos 883 Rocket 4.4 20:00:58 10° NNW 20:07:10 73° W 20:07:54 66° SW
Cosmos 2228 Rocket 3.7 20:02:56 10° N 20:06:24 55° NNW 20:06:24 55° NNW
Meteor 1-25 Rocket 4.2 20:13:43 70° ENE 20:13:43 70° ENE 20:18:58 10° NNE
Cosmos 2237 Rocket 3.9 20:09:09 10° N 20:13:37 23° NE 20:15:23 20° ENE
IRIDIUM 114 4.5 20:08:53 10° N 20:13:55 65° WNW 20:13:55 65° WNW
Cosmos 2322 Rocket 3.6 20:09:55 10° NW 20:14:29 26° WSW 20:14:40 26° WSW
Cosmos 2227 Rocket 4.2 20:20:01 15° E 20:20:01 15° E 20:21:55 10° ENE
USA 234 3.4 20:20:08 47° ESE 20:22:05 70° NE 20:28:37 10° NW
COSMOS 2455 2.9 20:22:48 63° WSW 20:23:35 72° WNW 20:29:37 10° NNE
Meteor 1-19 Rocket 4.3 20:26:30 10° N 20:31:50 67° ENE 20:31:50 67° ENE
ALOS 2 3.5 20:35:37 47° NNW 20:35:37 47° NNW 20:38:48 10° NNW
Cosmos 2219 Rocket 2.3 20:32:26 10° NNW 20:37:30 69° WNW 20:37:30 69° WNW
Nadezhda 2 Rocket 4.4 20:38:03 75° SW 20:38:28 79° W 20:44:53 10° N
Meteor 2-4 Rocket 4.2 20:39:23 10° N 20:45:10 51° ENE 20:45:17 51° E
COSMOS 2428 2.8 20:42:30 10° NNW 20:47:41 71° WNW 20:47:41 71° WNW
SL-08 ROCKET BODY 4.3 20:48:55 86° W 20:48:56 86° W 20:55:06 10° N
Lacrosse 5 3.5 20:55:15 24° ENE 20:55:15 24° ENE 20:57:28 10° ENE
Cosmos 494 Rocket 4.4 20:53:21 57° NW 20:53:21 57° NW 20:57:57 10° NNE
BREEZE-M DEB (TANK) 3.9 20:46:02 10° WSW 20:57:33 81° NNW 21:01:24 10° ENE
ATLAS 5 CENTAUR R/B 2.3 21:02:40 10° NNW 21:08:24 82° NE 21:08:31 81° ENE
NOSS 3-1 (C) 4.4 21:03:20 10° NW 21:10:50 51° WSW 21:11:25 50° SW
Cosmos 2219 3.8 21:12:03 48° E 21:12:03 48° E 21:16:48 10° NNE
Cosmos 1302 Rocket 4.4 21:08:59 10° NNW 21:13:39 60° NE 21:13:39 60° NE
NOSS 0 Rocket 3.8 21:10:25 10° NNW 21:16:31 81° W 21:16:31 81° W
USA 229 DEB 3.9 21:17:06 10° NW 21:24:25 62° WSW 21:24:45 62° SW
USA 229 3.9 21:17:12 10° NW 21:24:30 63° WSW 21:24:52 62° SW
Thor Agena Rocket 3.8 21:21:05 10° N 21:25:26 64° NNW 21:25:26 64° NNW
Okean 1-7 4.3 21:26:47 10° N 21:29:37 38° NNE 21:29:37 38° NNE
Geosat 4.2 21:34:24 66° NNW 21:34:24 66° NNW 21:38:45 10° NNW
Cosmos 2333 Rocket 4.0 21:30:00 10° NW 21:32:47 19° W 21:32:47 19° W
Cosmos 1980 3.7 21:29:04 10° NNW 21:34:12 73° NW 21:34:12 73° NW
ASTEX 1 4.2 21:44:14 42° ENE 21:44:14 42° ENE 21:48:40 10° N
NOSS 3-1 (A) 4.4 21:37:24 10° NW 21:44:55 50° WSW 21:45:18 50° SW
CZ-2D R/B 3.5 21:44:35 10° NE 21:49:10 27° E 21:49:21 27° E
Cosmos 2297 Rocket 2.4 21:50:21 63° WNW 21:50:23 63° WNW 21:56:02 10° NNE
Cosmos 1709 Rocket 3.9 21:50:11 77° WSW 21:50:31 80° W 21:56:56 10° N
CZ-4C R/B 4.4 21:45:04 10° NNW 21:51:30 34° NE 21:58:51 10° ESE
Timation 1 Rocket 4.2 21:54:28 83° ESE 21:54:28 83° ESE 22:00:29 10° NNE
MOZ.5/SAFIR/RUBIN 5/SL-8 4.5 21:56:10 48° ENE 21:56:10 48° ENE 22:00:35 10° N
Cosmos 2237 Rocket 2.6 21:52:30 10° NNW 21:57:11 52° WNW 21:57:11 52° WNW
Cosmos 2251 Rocket 4.0 22:00:54 51° E 22:00:54 51° E 22:05:39 10° NNE
Cosmos 2227 Rocket 2.2 22:01:49 68° WNW 22:01:52 68° WNW 22:07:31 10° NNE
Meteor 1-11 Rocket 3.6 22:03:56 76° WNW 22:03:56 76° WNW 22:09:18 10° N
USA 234 4.3 22:07:28 28° W 22:07:28 28° W 22:11:15 10° WNW
Cosmos 909 Rocket 4.3 22:12:15 56° WSW 22:13:36 69° NW 22:21:10 10° NNE
Timation 2 Rocket 3.8 22:14:32 69° W 22:15:02 73° WNW 22:21:09 10° NNE
Cosmos 1241 Rocket 4.4 22:15:34 69° S 22:16:17 77° ESE 22:22:49 10° NE
Cosmos 2184 Rocket 4.1 22:18:31 55° SE 22:19:35 64° E 22:25:48 10° NNE
Cosmos 2263 Rocket 3.3 22:21:11 31° ESE 22:21:47 32° ESE 22:26:46 10° NE
Cosmos 614 Rocket 4.0 22:22:17 72° E 22:22:17 72° E 22:27:21 10° NNE
SL-16 R/B 2.1 22:19:02 10° NNW 22:24:44 81° ENE 22:25:25 69° SE
ATLAS CENTAUR R/B 3.5 22:29:17 17° E 22:29:17 17° E 22:30:55 10° ENE
Lacrosse 5 3.0 22:34:25 32° WNW 22:35:42 37° NW 22:40:25 10° NE
Cosmos 1733 Rocket 3.3 22:36:20 64° ENE 22:36:20 64° ENE 22:40:25 10° NNE
SL-16 R/B 2.6 22:34:57 43° SE 22:37:03 71° ENE 22:43:14 10° N
Resurs 1-4 Rocket 2.0 22:33:23 10° NNE 22:38:42 77° ESE 22:39:09 71° SSE
Cosmos 2074 Rocket 3.9 22:38:12 64° SSW 22:39:17 87° W 22:45:32 10° N
AQUA 4.3 22:37:27 10° NNE 22:42:05 50° E 22:42:25 49° ESE
Cosmos 1743 4.2 22:47:41 29° NW 22:47:41 29° NW 22:50:05 10° N
Cosmos 2344 3.8 22:45:07 42° S 22:47:23 57° ESE 22:54:45 10° NE
Cosmos 1461 3.1 22:47:48 78° NE 22:47:48 78° NE 22:52:01 10° NNE
Meteor 1-23 Rocket 4.3 22:42:02 10° NNW 22:47:38 57° W 22:47:54 57° WSW
Helios 1A 4.1 22:50:40 34° NW 22:50:40 34° NW 22:53:26 10° NNW
ADEOS Rocket 2.9 22:49:49 40° SE 22:51:47 69° ENE 22:57:15 10° N
Cosmos 407 Rocket 3.6 22:51:54 58° SSE 22:52:37 65° ESE 22:57:50 10° NNE
ATLAS 5 CENTAUR R/B 4.3 22:48:35 10° WNW 22:50:00 15° W 22:50:00 15° W
Helios 1B rocket 2.7 22:50:31 10° NNE 22:54:25 63° E 22:54:25 63° E
Cosmos 1943 4.4 22:55:19 10° N 23:00:42 41° ENE 23:06:02 10° SE
Meteor 2-12 Rocket 4.5 22:59:40 52° SW 23:00:53 63° W 23:07:00 10° N
UNK 3.6 23:07:01 70° WSW 23:07:09 70° WSW 23:11:50 10° NNW
ADEOS II 2.2 23:06:17 10° NNE 23:11:33 71° ESE 23:13:01 47° S
Cosmos 1356 Rocket 3.2 23:16:50 84° SE 23:16:56 86° E 23:20:56 10° N
Cosmos 1707 2.8 23:15:54 10° N 23:19:43 67° E 23:20:07 62° ESE
NPP 3.8 23:15:15 10° N 23:20:33 59° WNW 23:21:50 46° WSW
SL-8 R/B 4.1 23:24:26 36° W 23:26:08 59° NNW 23:30:54 10° ENE
Cosmos 1340 4.2 23:24:58 10° N 23:28:25 34° ENE 23:30:44 17° SE
CZ-2D R/B 2.9 23:24:16 10° N 23:29:17 40° WNW 23:30:40 34° WSW
Meteor 1-29 2.9 23:26:43 10° NNE 23:29:53 78° NE 23:29:53 78° NE
BREEZE-M DEB (TANK) 3.3 23:31:18 49° ENE 23:31:18 49° ENE 23:33:00 10° ENE
NOSS 3-3 (A) 3.9 23:28:53 41° SW 23:30:58 73° NW 23:37:27 10° NNE
NOSS 3-3 (C) 3.9 23:29:00 41° SW 23:31:05 74° NW 23:37:32 10° NNE
CBERS-1 4.3 23:27:54 10° NNE 23:33:00 63° ESE 23:35:19 32° S
Cosmos 1238 Rocket 3.2 23:34:16 41° NW 23:34:16 41° NW 23:37:14 10° N
Cosmos 1844 Rocket 4.4 23:30:01 13° SSE 23:33:52 26° ESE 23:38:28 10° NE
Okean 2 3.5 23:31:21 10° NNW 23:35:27 56° W 23:35:40 55° WSW
Cosmos 2341 Rocket 4.0 23:32:39 32° S 23:35:48 86° E 23:42:04 10° N
Cosmos 1140 Rocket 3.7 23:35:42 41° WSW 23:37:11 56° WNW 23:42:22 10° NNE
Nadezhda 3 Rocket 4.2 23:31:49 10° NNW 23:37:58 53° W 23:40:22 35° SSW
Cosmos 1674 Rocket 4.0 23:35:32 10° NNW 23:39:43 42° W 23:39:57 41° W
CZ-4C R/B 3.0 23:33:12 10° NW 23:40:40 71° WSW 23:49:10 10° SSE
Cosmos 1674 3.4 23:38:45 10° N 23:42:30 51° E 23:44:42 22° SSE
Cosmos 1975 3.9 23:43:21 30° W 23:43:28 30° WNW 23:47:05 10° NNW
Cosmos 2227 Rocket 4.5 23:44:46 10° WNW 23:47:02 12° NW 23:49:18 10° NNW
Cosmos 1190 Rocket 4.3 23:46:06 37° SW 23:47:58 56° WNW 23:53:12 10° NNE
Orbus 7S? 4.4 23:43:42 29° SW 23:48:20 82° SE 23:52:31 10° NE
MINOTAUR 4 R/B 4.2 23:52:03 49° WSW 23:52:05 49° W 23:55:34 10° NNW
Cosmos 1603 3.6 23:46:40 10° NNW 23:52:19 79° WSW 23:57:57 10° SSE
